Weather History for KODX - February, 2013

Change the Weather History Date:

Thursday, February 28, 2013

  Actual Average Record
Temperature  
Mean Temperature 28 °F 31 °F  
Max Temperature 31 °F 44 °F 79 °F (2006)
Min Temperature 24 °F 19 °F -8 °F (2009)
Degree Days  
Heating Degree Days 37 34  
Month to date heating degree days 1015 1041  
Since 1 July heating degree days 4969 5017  
Cooling Degree Days 0 0  
Month to date cooling degree days 0 0  
Year to date cooling degree days 0 0  
Moisture  
Dew Point 22 °F    
Average Humidity 79    
Maximum Humidity 88    
Minimum Humidity 69    
Precipitation  
Precipitation 0.00 in 0.01 in 0.63 in (1987)
Month to date precipitation 1.48 0.44  
Year to date precipitation 1.62 0.81  
Sea Level Pressure  
Sea Level Pressure 30.26 in    
Wind  
Wind Speed 14 mph (NNW)    
Max Wind Speed 24 mph    
Max Gust Speed 29 mph    
Visibility 10 miles    
Events      
T = Trace of Precipitation, MM = Missing Value Source: NWS Daily Summary

Daily Weather History Graph

Daily Weather History Graph

Search for Another Location

Airport or City:

Trip Planner

Search our weather history database for the weather conditions in past years. The results will help you decide how hot, cold, wet, or windy it might be!

Date:

Astronomy

Feb. 28, 2013 Rise Set
Actual Time 7:11 AM CST 6:25 PM CST
Civil Twilight 6:43 AM CST 6:53 PM CST
Nautical Twilight 6:11 AM CST 7:25 PM CST
Astronomical Twilight 5:39 AM CST 7:57 PM CST
Moon 9:57 PM CST (2/28) 8:19 AM CST (2/28)
Length of Visible Light 12h 09m
Length of Day
11h 13m
Waning Gibbous, 90% of the Moon is Illuminated
Feb 28
Waning Gibbous
Mar 4
Last Quarter
Mar 11
New
Mar 19
First Quarter
Mar 27
Full

Hourly Weather History & Observations

Time (CST) Temp. Windchill Dew Point Humidity Pressure Visibility Wind Dir Wind Speed Gust Speed Precip Events Conditions
12:53 AM 28.4 °F 15.4 °F 23.0 °F 80% 30.15 in 10.0 mi North 19.6 mph 27.6 mph N/A   Overcast
1:53 AM 28.9 °F 16.9 °F 23.0 °F 78% 30.23 in 9.0 mi NNW 17.3 mph 25.3 mph N/A   Overcast
2:53 AM 28.0 °F 15.7 °F 21.9 °F 78% 30.24 in 9.0 mi NNW 17.3 mph - N/A   Overcast
3:53 AM 28.0 °F 14.6 °F 21.9 °F 78% 30.24 in 9.0 mi NNW 20.7 mph 26.5 mph N/A   Overcast
4:53 AM 27.0 °F 13.5 °F 21.9 °F 81% 30.25 in 9.0 mi NNW 19.6 mph 27.6 mph N/A   Overcast
5:53 AM 27.0 °F 14.3 °F 21.9 °F 81% 30.25 in 10.0 mi NNW 17.3 mph - N/A   Overcast
6:53 AM 27.0 °F 15.6 °F 21.9 °F 81% 30.26 in 9.0 mi NNW 13.8 mph - N/A   Overcast
7:53 AM 27.0 °F 14.7 °F 21.9 °F 81% 30.27 in 8.0 mi NNW 16.1 mph - N/A   Overcast
8:53 AM 27.0 °F 14.7 °F 21.9 °F 81% 30.29 in 8.0 mi NNW 16.1 mph - N/A   Overcast
9:53 AM 28.0 °F 14.9 °F 21.9 °F 78% 30.30 in 9.0 mi NNW 19.6 mph - N/A   Overcast
10:53 AM 28.9 °F 16.5 °F 23.0 °F 78% 30.29 in 9.0 mi NNW 18.4 mph - N/A   Overcast
11:53 AM 28.9 °F 17.7 °F 23.0 °F 78% 30.30 in 10.0 mi NNW 15.0 mph - N/A   Overcast
12:18 PM 30.2 °F 19.8 °F 23.0 °F 75% 30.21 in 10.0 mi NNW 13.8 mph - N/A   Overcast
12:53 PM 30.0 °F 18.7 °F 24.1 °F 79% 30.28 in 10.0 mi NW 16.1 mph - N/A   Overcast
1:53 PM 30.9 °F 20.7 °F 24.1 °F 76% 30.27 in 10.0 mi North 13.8 mph - N/A   Overcast
2:53 PM 30.0 °F 19.5 °F 24.1 °F 79% 30.27 in 10.0 mi NNW 13.8 mph - N/A   Overcast
3:53 PM 30.0 °F 20.0 °F 23.0 °F 75% 30.26 in 10.0 mi North 12.7 mph - N/A   Overcast
4:53 PM 30.0 °F 21.1 °F 23.0 °F 75% 30.26 in 10.0 mi North 10.4 mph - N/A   Overcast
5:53 PM 30.0 °F 19.5 °F 21.9 °F 72% 30.27 in 10.0 mi North 13.8 mph - N/A   Overcast
6:53 PM 28.4 °F 19.1 °F 21.2 °F 74% 30.21 in 10.0 mi North 10.4 mph - N/A   Overcast
7:53 PM 28.9 °F 20.4 °F 21.9 °F 75% 30.29 in 10.0 mi North 9.2 mph - N/A   Overcast
8:53 PM 28.0 °F 20.0 °F 23.0 °F 81% 30.29 in 10.0 mi North 8.1 mph - N/A   Overcast
9:41 PM 26.6 °F 20.0 °F 21.2 °F 80% 30.20 in 10.0 mi North 5.8 mph - N/A   Scattered Clouds
9:53 PM 25.0 °F 20.7 °F 19.9 °F 81% 30.29 in 10.0 mi North 3.5 mph - N/A   Clear
10:27 PM 24.8 °F 17.9 °F 19.4 °F 80% 30.21 in 10.0 mi North 5.8 mph - N/A   Mostly Cloudy
10:53 PM 25.0 °F 19.3 °F 21.0 °F 85% 30.30 in 10.0 mi North 4.6 mph - N/A   Overcast
11:53 PM 26.1 °F 20.5 °F 21.0 °F 81% 30.29 in 10.0 mi NNE 4.6 mph - N/A   Overcast